Location: Unspecified
(0.0000°N, 0.0000°E)
Time: 15:58:25
(UTC+02:00)

NATO 3D Rocket - Visible Passes

Search period start: 25 July 2016 00:00
Search period end: 04 August 2016 00:00
Orbit: 670 x 2296 km, 21.5° (Epoch: 23 July)

Date Brightness Start Highest point End Pass type
(mag) Time Alt. Az. Time Alt. Az. Time Alt. Az.
25 Jul 5.2 05:21:19 71° SSE 05:21:24 71° SSE 05:34:25 10° ENE visible
25 Jul 5.9 07:16:52 13° W 07:27:31 63° NNW 07:41:29 10° ENE visible
26 Jul 6.2 04:27:47 36° E 04:27:47 36° E 04:34:45 10° E visible
26 Jul 5.5 06:23:20 36° W 06:28:44 74° NNW 06:42:26 10° ENE visible
27 Jul 7.2 03:34:15 12° E 03:34:15 12° E 03:34:58 10° E visible
27 Jul 5.0 05:29:48 83° W 05:30:16 88° NNW 05:43:09 10° ENE visible
27 Jul 6.2 07:25:48 10° W 07:36:35 48° NNW 07:49:53 10° NE visible
28 Jul 5.9 04:36:16 43° E 04:36:16 43° E 04:43:45 10° ENE visible
28 Jul 5.7 06:31:48 28° W 06:37:45 56° NNW 06:50:50 10° NE visible
29 Jul 7.0 03:42:44 15° E 03:42:44 15° E 03:44:19 10° ENE visible
29 Jul 5.0 05:38:16 62° NW 05:39:17 65° NNW 05:51:38 10° ENE visible
29 Jul 6.5 07:35:46 10° WNW 07:45:53 38° NNW 07:58:18 10° NE visible
30 Jul 5.7 04:44:44 46° NE 04:44:44 46° NE 04:52:26 10° ENE visible
30 Jul 6.1 06:40:16 20° WNW 06:47:01 42° NNW 06:59:08 10° NE visible
31 Jul 6.9 03:51:12 17° ENE 03:51:12 17° ENE 03:53:18 10° ENE visible
31 Jul 5.4 05:46:45 43° NW 05:48:31 47° NNW 05:59:58 10° NE visible
01 Aug 5.7 04:53:12 43° NNE 04:53:12 43° NNE 05:00:53 10° NE visible
01 Aug 6.4 06:48:45 12° WNW 06:56:31 32° N 07:07:29 10° NE visible
02 Aug 6.8 03:59:40 18° ENE 03:59:40 18° ENE 04:01:57 10° ENE visible
02 Aug 5.8 05:55:13 30° NW 05:57:58 35° NNW 06:08:12 10° NE visible
03 Aug 5.8 05:01:41 35° N 05:01:41 35° N 05:09:09 10° NE visible
03 Aug 6.6 06:58:24 10° WNW 07:06:11 26° N 07:16:02 10° NE visible
